Location: Le Rocchette
(44.3500°N, 7.8333°E)
Time: 05:39:35
(UTC+00:00)

Cosmos 2058 - Pass Details

Date: 17 November 2019
Orbit: 561 x 585 km, 82.5° (Epoch: 10 December)

Event Time Altitude Azimuth Distance (km) Brightness Sun altitude
Exits shadow 04:05:29 34° 15° (NNE) 967 4.1 -25.1°
Drops below altitude 10° 04:07:56 10° 11° (N) 1,910 5.6 -24.7°
Sets 04:10:08 0° 10° (N) 2,811 6.5 -24.3°
